[[{"header":{"parameterUnit":"m.s-1","parameterCategory":1,"la1":30.2991,"la2":30.254,"lo1":-89.0895,"lo2":-89.0444,"dy":0.0017,"dx":0.0017,"nx":28,"ny":28,"refTime":"2025-11-24T09:00:00:Z","depth":0,"parameterNumber":2,"parameterNumberName":"U-component_of_WINDS"},"data":[0,0,0,0,0,0,0,0,0,0,0,0,0,0,0,0,0,0,0,0,0,0,0,0,0,0,0,0,0,0,0,0,0,0,0,0,0,0,0,0,0,0,0,0,0,0,0,0,0,0,0,0,0,0,0,0,0,0,-0.3249,-0.3248,0,-0.3157,-0.3156,-0.3155,-0.3135,-0.3136,-0.3137,-0.3137,-0.3042,-0.3039,-0.3036,0,0,0,0,0,0,0,0,0,0,0,0,0,-0.3407,-0.3404,-0.3249,-0.3248,-0.3247,-0.3157,-0.3156,-0.3155,-0.3135,-0.3136,-0.3137,-0.3138,-0.3043,-0.3039,-0.3036,0,0,0,0,0,0,0,0,0,0,0,0,0,-0.3329,-0.3403,-0.3249,-0.3226,-0.3223,-0.3157,-0.3156,-0.3154,-0.3135,-0.3136,-0.3137,-0.3138,-0.3044,-0.304,-0.3035,-0.2985,0,0,-0.3021,-0.3019,0,0,0,0,0,0,0,0,-0.3334,-0.3323,-0.3231,-0.3228,-0.3224,-0.3159,-0.3177,-0.3098,-0.3135,-0.3169,-0.3137,-0.3139,-0.308,-0.3072,-0.3053,-0.2981,-0.2977,-0.302,-0.3017,-0.3015,-0.3014,0,0,0,0,0,0,0,-0.3339,-0.3327,-0.3213,-0.323,-0.3226,-0.322,-0.321,-0.3162,-0.312,-0.3166,-0.3164,-0.3154,-0.3078,-0.3058,-0.3051,-0.2975,-0.302,-0.3016,-0.3013,-0.3011,-0.2856,-0.2855,0,0,0,0,0,0,-0.3349,-0.3332,-0.3216,-0.321,-0.3283,-0.3217,-0.3206,-0.3179,-0.312,-0.3112,-0.3153,-0.3153,-0.3065,-0.3056,-0.3047,-0.2984,-0.3015,-0.3011,-0.3008,-0.2858,-0.2856,-0.2855,0,0,0,0,0,0,-0.3352,-0.3338,-0.3219,-0.327,-0.3255,-0.3213,-0.3183,-0.3176,-0.3155,-0.311,-0.3103,-0.3139,-0.3066,-0.3054,-0.3001,-0.298,-0.3009,-0.3004,-0.2859,-0.2857,-0.2855,-0.2857,0,0,0,0,0,0,-0.3357,-0.334,-0.3321,-0.327,-0.3252,-0.3175,-0.3182,-0.3174,-0.3147,-0.3147,-0.3095,-0.3088,-0.3066,-0.3008,-0.2996,-0.2974,-0.3001,-0.2861,-0.2858,-0.2856,-0.2859,-0.2856,-0.2853,0,0,0,0,0,-0.3362,-0.3325,-0.332,-0.3306,-0.3227,-0.3174,-0.3163,-0.3138,-0.3146,-0.3126,-0.3097,-0.309,-0.2985,-0.3002,-0.2989,-0.2965,-0.2862,-0.2859,-0.2856,-0.286,-0.2856,-0.2853,0,0,0,0,0,0,-0.3374,-0.3318,-0.3312,-0.3257,-0.322,-0.317,-0.3145,-0.3135,-0.3096,-0.3097,-0.3067,-0.3056,-0.3004,-0.298,-0.3,-0.2914,-0.2924,-0.2918,-0.2931,-0.2927,-0.2924,-0.2931,-0.2997,0,0,0,0,0,-0.337,-0.3331,-0.3284,-0.3241,-0.3223,-0.3187,-0.3162,-0.3146,-0.3107,-0.3091,-0.3059,-0.302,-0.2979,-0.2952,-0.2911,-0.2856,-0.2844,-0.2833,-0.283,-0.2828,-0.2823,-0.279,-0.2785,-0.2845,-0.2846,-0.2846,0,0,-0.3362,-0.3326,-0.3304,-0.3242,-0.3212,-0.3172,-0.3174,-0.3132,-0.3101,-0.3085,-0.3032,-0.3007,-0.2962,-0.2908,-0.2882,-0.2886,-0.2803,-0.2824,-0.2823,-0.2819,-0.2787,-0.2781,-0.2776,-0.2844,-0.2844,-0.2844,0,0,-0.3326,-0.3296,-0.3255,-0.3225,-0.3179,-0.3155,-0.3146,-0.3097,-0.308,-0.3027,-0.3013,-0.2977,-0.2906,-0.2874,-0.2849,-0.2801,-0.2792,-0.2789,-0.2773,-0.2742,-0.2737,-0.2733,-0.2714,-0.2708,-0.2784,-0.2784,-0.2784,0,-0.3321,-0.326,-0.3236,-0.3193,-0.3166,-0.315,-0.3108,-0.308,-0.3023,-0.3004,-0.301,-0.292,-0.2889,-0.2826,-0.2814,-0.2795,-0.2782,-0.2794,-0.274,-0.2735,-0.2731,-0.2713,-0.2706,-0.2784,-0.2784,-0.2784,-0.2784,0,-0.3256,-0.3214,-0.3187,-0.3132,-0.3102,-0.3061,-0.3029,-0.3001,-0.2988,-0.2964,-0.291,-0.2872,-0.2823,-0.2807,-0.2794,-0.2742,-0.2745,-0.2746,-0.2755,-0.2725,-0.2707,-0.27,-0.2784,-0.2784,-0.2784,-0.2784,0,0,-0.3224,-0.3156,-0.3146,-0.3121,-0.3069,-0.3036,-0.2994,-0.2946,-0.2922,-0.2884,-0.2846,-0.2787,-0.2786,-0.2758,-0.2741,-0.2714,-0.2676,-0.2717,-0.2716,-0.271,-0.2615,-0.2615,-0.2607,-0.2671,-0.267,-0.2669,-0.2619,0,-0.3181,-0.3104,-0.308,-0.3016,-0.2976,-0.2961,-0.2923,-0.2887,-0.2864,-0.2826,-0.28,-0.2758,-0.2761,-0.2743,-0.2716,-0.2687,-0.2657,-0.269,-0.2635,-0.2634,-0.2645,-0.2598,-0.2597,-0.2552,-0.2612,-0.2611,-0.261,0,-0.312,-0.308,-0.3012,-0.2964,-0.2946,-0.2913,-0.2867,-0.2832,-0.2791,-0.2775,-0.2743,-0.2728,-0.2683,-0.2696,-0.2632,-0.2655,-0.2631,-0.2614,-0.2611,-0.2604,-0.2619,-0.2588,-0.2537,-0.253,-0.2599,-0.26,-0.2601,0,-0.3101,-0.3031,-0.2981,-0.296,-0.2903,-0.288,-0.2856,-0.2815,-0.2788,-0.2747,-0.2729,-0.2684,-0.2659,-0.2624,-0.2597,-0.261,-0.2535,-0.2547,-0.2521,-0.2521,-0.2504,-0.2506,-0.2447,-0.2492,-0.2492,-0.2492,-0.2492,0,-0.3055,-0.3013,-0.2971,-0.294,-0.2893,-0.2866,-0.282,-0.2795,-0.2759,-0.2722,-0.2706,-0.2672,-0.264,-0.2601,-0.258,-0.253,-0.2519,-0.2505,-0.2499,-0.2505,-0.2507,-0.2488,-0.249,-0.249,-0.249,-0.2491,-0.2491,0,-0.3026,-0.2996,-0.294,-0.2891,-0.2878,-0.2845,-0.2803,-0.2772,-0.2748,-0.2702,-0.269,-0.2651,-0.2605,-0.2575,-0.2517,-0.2502,-0.2447,-0.2443,-0.2461,-0.2458,-0.2433,-0.2435,-0.2359,-0.2347,-0.2401,-0.2401,-0.24,0,-0.2997,-0.2965,-0.2913,-0.2887,-0.2862,-0.2821,-0.2793,-0.2765,-0.2736,-0.2686,-0.2661,-0.2614,-0.2574,-0.2501,-0.2467,-0.2422,-0.2416,-0.2393,-0.2409,-0.2416,-0.2414,-0.2416,-0.2412,-0.239,-0.2389,-0.2389,-0.2389,0,-0.2949,-0.2936,-0.2896,-0.2851,-0.2817,-0.278,-0.2743,-0.2723,-0.2689,-0.2657,-0.2609,-0.2579,-0.2518,-0.2471,-0.2423,-0.2397,-0.2387,-0.2384,-0.2375,-0.238,-0.2391,-0.2384,-0.2452,-0.2386,-0.2386,-0.2386,-0.2386,-0.2386,-0.2919,-0.2889,-0.2847,-0.2803,-0.2772,-0.2737,-0.2705,-0.2677,-0.2637,-0.2585,-0.2572,-0.2522,-0.248,-0.2414,-0.2388,-0.2348,-0.2351,-0.2339,-0.2335,-0.2332,-0.2331,-0.2399,-0.2339,-0.2339,-0.2339,-0.2339,-0.2339,0,-0.2869,-0.2841,-0.28,-0.2749,-0.2714,-0.2708,-0.2666,-0.2637,-0.2593,-0.2556,-0.2517,-0.2462,-0.2416,-0.2379,-0.2332,-0.2307,-0.2301,-0.2295,-0.2296,-0.229,-0.2332,-0.2344,-0.2301,-0.2301,-0.2301,-0.2301,-0.2301,-0.2301,-0.2838,-0.2787,-0.2769,-0.2702,-0.2674,-0.2625,-0.2602,-0.257,-0.2539,-0.2478,-0.244,-0.2417,-0.2379,-0.2329,-0.2286,-0.2277,-0.2259,-0.2254,-0.2244,-0.2283,-0.2287,-0.2291,-0.2302,-0.2251,-0.2251,-0.2205,-0.2204,-0.2204]},{"header":{"parameterUnit":"m.s-1","parameterCategory":1,"la1":30.2991,"la2":30.254,"lo1":-89.0895,"lo2":-89.0444,"dy":0.0017,"dx":0.0017,"nx":28,"ny":28,"refTime":"2025-11-24T09:00:00:Z","depth":0,"parameterNumber":3,"parameterNumberName":"V-component_of_WINDS"},"data":[0,0,0,0,0,0,0,0,0,0,0,0,0,0,0,0,0,0,0,0,0,0,0,0,0,0,0,0,0,0,0,0,0,0,0,0,0,0,0,0,0,0,0,0,0,0,0,0,0,0,0,0,0,0,0,0,0,0,4.6417,4.642,0,4.6692,4.6695,4.6698,4.6736,4.6734,4.6731,4.6729,4.701,4.702,4.703,0,0,0,0,0,0,0,0,0,0,0,0,0,4.5924,4.5933,4.6416,4.642,4.6423,4.6692,4.6695,4.6699,4.6737,4.6734,4.673,4.6727,4.7007,4.7019,4.7031,0,0,0,0,0,0,0,0,0,0,0,0,0,4.6163,4.5936,4.6416,4.6474,4.6482,4.6691,4.6696,4.67,4.6737,4.6733,4.673,4.6726,4.7003,4.7018,4.7032,4.7201,0,0,4.7078,4.7084,0,0,0,0,0,0,0,0,4.6149,4.6181,4.6462,4.6471,4.648,4.6676,4.6625,4.6868,4.6738,4.6641,4.6729,4.6724,4.6902,4.6925,4.6985,4.7214,4.7226,4.7079,4.7088,4.7094,4.7098,0,0,0,0,0,0,0,4.6132,4.6169,4.6526,4.6466,4.6477,4.6487,4.6517,4.6671,4.679,4.6649,4.6652,4.6684,4.6906,4.6971,4.6992,4.7231,4.7078,4.7092,4.7101,4.7107,4.7615,4.762,0,0,0,0,0,0,4.6105,4.6155,4.6517,4.6534,4.6302,4.6499,4.6532,4.6617,4.6788,4.681,4.6687,4.6685,4.6947,4.6975,4.7002,4.7214,4.7094,4.7108,4.7117,4.7611,4.7616,4.7621,0,0,0,0,0,0,4.6094,4.6137,4.6506,4.6346,4.6393,4.6512,4.6607,4.6624,4.6689,4.6817,4.6838,4.6732,4.6945,4.6981,4.7152,4.7224,4.7115,4.7128,4.7605,4.7612,4.7619,4.7637,0,0,0,0,0,0,4.608,4.6133,4.6198,4.6347,4.6402,4.6651,4.6611,4.6633,4.6715,4.6714,4.6864,4.6885,4.6945,4.713,4.7167,4.7243,4.714,4.7599,4.7608,4.7617,4.7631,4.7644,4.7655,0,0,0,0,0,4.6062,4.6191,4.6201,4.6245,4.6486,4.6655,4.6687,4.6753,4.672,4.6787,4.687,4.6881,4.7209,4.7147,4.7189,4.727,4.7595,4.7606,4.7616,4.7625,4.7641,4.7655,0,0,0,0,0,0,4.6048,4.6212,4.6225,4.6406,4.6516,4.6661,4.6748,4.6767,4.6889,4.6883,4.696,4.6993,4.7162,4.7233,4.716,4.7444,4.74,4.7419,4.7392,4.7408,4.742,4.7401,4.7152,0,0,0,0,0,4.6066,4.6189,4.6326,4.6473,4.6528,4.6628,4.6704,4.6746,4.6863,4.691,4.7005,4.7119,4.7248,4.7332,4.7457,4.764,4.7675,4.7717,4.7729,4.7738,4.7755,4.7859,4.7881,4.7655,4.7655,4.7655,0,0,4.6104,4.6209,4.6282,4.6472,4.6563,4.6691,4.6667,4.6802,4.6898,4.6931,4.7099,4.7172,4.7304,4.7483,4.7566,4.7547,4.7824,4.7751,4.7758,4.777,4.7872,4.7893,4.7912,4.7662,4.7661,4.766,0,0,4.6239,4.633,4.6464,4.6555,4.6693,4.6759,4.6791,4.6934,4.6984,4.7154,4.7182,4.7297,4.7517,4.7611,4.7687,4.786,4.7875,4.7898,4.7963,4.8064,4.8082,4.8098,4.8162,4.8184,4.7914,4.7914,4.7914,0,4.6269,4.6463,4.653,4.6665,4.6749,4.6785,4.6921,4.7007,4.7178,4.7236,4.7212,4.7491,4.7582,4.7784,4.7826,4.7886,4.7926,4.7883,4.8073,4.809,4.8107,4.8169,4.8192,4.7916,4.7916,4.7915,4.7915,0,4.6494,4.6628,4.6719,4.6886,4.6979,4.7114,4.7203,4.7289,4.7322,4.7391,4.7565,4.7675,4.7826,4.7876,4.7909,4.8084,4.8068,4.8058,4.8015,4.8129,4.8189,4.8213,4.7919,4.7918,4.7918,4.7917,0,0,4.6629,4.6832,4.6864,4.6941,4.7096,4.7201,4.7338,4.7486,4.756,4.7677,4.7795,4.7981,4.7974,4.806,4.8104,4.8192,4.8326,4.8172,4.8176,4.8199,4.8528,4.8537,4.8563,4.8336,4.834,4.8344,4.8518,0,4.6785,4.7032,4.7097,4.7306,4.7432,4.7468,4.7588,4.7696,4.7764,4.7881,4.7955,4.8087,4.8065,4.8119,4.8207,4.829,4.8393,4.8278,4.8448,4.8453,4.8417,4.8594,4.8604,4.8762,4.8541,4.8545,4.8548,0,4.7,4.7123,4.7345,4.7487,4.7542,4.7648,4.779,4.79,4.8024,4.8068,4.8165,4.8201,4.8347,4.8294,4.8496,4.8417,4.849,4.8541,4.8549,4.857,4.851,4.8622,4.8814,4.8839,4.8585,4.8582,4.8579,0,4.708,4.7301,4.7463,4.7527,4.7695,4.777,4.7843,4.7963,4.8049,4.8172,4.8228,4.8366,4.8442,4.8549,4.8621,4.8576,4.8819,4.8771,4.886,4.8859,4.8912,4.8908,4.9121,4.8954,4.8953,4.8953,4.8952,0,4.7249,4.7384,4.7502,4.7602,4.7755,4.7829,4.7978,4.8053,4.816,4.8276,4.8314,4.8422,4.851,4.863,4.8687,4.8848,4.8881,4.8921,4.8935,4.892,4.8915,4.897,4.8962,4.8959,4.8958,4.8956,4.8955,0,4.7365,4.7449,4.7629,4.7773,4.7813,4.792,4.8044,4.8143,4.8212,4.8358,4.8397,4.8505,4.8649,4.8731,4.8911,4.895,4.9129,4.9136,4.9088,4.9095,4.918,4.9172,4.9439,4.9478,4.9281,4.9283,4.9284,0,4.7468,4.7574,4.773,4.7811,4.7886,4.8015,4.8103,4.8179,4.8268,4.8419,4.85,4.8646,4.8767,4.8995,4.909,4.9228,4.9241,4.9325,4.9262,4.9244,4.9246,4.924,4.9253,4.9337,4.9338,4.934,4.9341,0,4.7645,4.7681,4.7806,4.7947,4.8051,4.8165,4.8278,4.8342,4.8437,4.8536,4.8684,4.8777,4.8962,4.9108,4.9254,4.933,4.9353,4.9359,4.9388,4.9375,4.9343,4.9365,4.912,4.9354,4.9352,4.9352,4.9351,4.935,4.776,4.7857,4.7983,4.8121,4.8215,4.832,4.8421,4.8503,4.8628,4.8785,4.8822,4.8978,4.9101,4.9301,4.938,4.9503,4.9489,4.9529,4.954,4.955,4.9554,4.9321,4.953,4.953,4.9529,4.9529,4.9529,0,4.7941,4.8024,4.8151,4.8309,4.8418,4.8429,4.8556,4.8647,4.8784,4.8897,4.9016,4.9186,4.9328,4.9434,4.9579,4.9657,4.9671,4.9693,4.9689,4.9707,4.9557,4.952,4.9679,4.9679,4.9679,4.9679,4.9679,4.9679,4.8048,4.8213,4.8265,4.8477,4.8559,4.8713,4.8785,4.8883,4.8973,4.9163,4.9281,4.9349,4.946,4.9613,4.9744,4.9771,4.9824,4.9845,4.9874,4.9733,4.9717,4.9702,4.9667,4.9855,4.9855,5.0014,5.0016,5.0017]}]]